www.pogodaiklimat.ru

Погода и климат >> Архив погоды >> Россия >> Ямало-Ненецкий АО >> Красноселькупск


ПОГОДА в Красноселькупске

  • Прогноз погоды в Красноселькупске
  • Монитор погоды в Красноселькупске

АРХИВ ПОГОДЫ в Красноселькупске

Время (UTC), дата Ветер
(напр.,м/с)
 
Видим.   Явления Облачность Т
(С)
Тd
(С)
f
(%)
Тe
(С)
Тes
(С)
Комфортность P
(гПа)
Po
(гПа)
Тmin
(С)
Tmax
(С)
R
(мм)
R24
(мм)
S
(см)
12 14.04 С 7-12
{13}
20 км позёмок 8/8
[Sc]
-16.5 -20.3 72 -27 -27 1015.9 1012.6
15 14.04 СЗ 5
{12}
20 км {метель, дождь} 4/0
[As op]
-19.1 -22.6 74 -29 -29 1017.1 1013.7 -11.6 0.0
18 14.04 СЗ 3 20 км {метель} 6/4 300 м
[Sc Ac trans]
-21.3 -24.3 77 -29 -29 1017.8 1014.4
21 14.04 С 6 20 км {ливн. осадки} 9/9 450 м
[Sc diur, vesp]
-12.3 -16.4 71
00 15.04 З 2 20 км 4/0
[Ac trans]
-25.4 -28.7 74 -32 -32 опасность
обморожения
1017.8 1014.3
03 15.04 З 2 20 км ясно -19.6 -22.6 77 -25 -21 1017.5 1014.1 -25.5 82
06 15.04 ЮЗ 3 20 км 3/0
[Ci fib]
-14.5 -20.7 59 -21 -15 1016.1 1012.8
09 15.04 Ю 3 20 км 4/0
[Ci fib]
-11.8 -19.5 53 -18 -14 1014.6 1011.3
12 15.04 ЮВ 4 20 км {ливн. осадки} 9/9 450 м
[Sc diur, vesp]
-10.4 -17.7 55 -17 -17 1011.9 1008.6
15 15.04 ЮВ 2 20 км 10/0
[Ci fib]
-11.1 -19.5 50 -16 -16 1010.2 1007.0 -10.3
18 15.04 ЮВ 4 2000 м слаб. ливневой снег 10/10 240 м
[Cb cap]
-11.1 -13.9 80 -18 -18 1007.4 1004.2
21 15.04 ЮВ 3 4000 м слаб. ливневой снег 10/10 270 м
[Cb cap]
-11.4 -13.4 85 -17 -17 1005.9 1002.7
00 16.04 В 3 2000 м слаб. ливневой снег 10/10 270 м
[Cb cap]
-11.5 -13.5 85 -17 -17 1004.7 1001.5
03 16.04 ЮВ 4 2000 м слаб. ливневой снег 9/9 300 м
[Cb cap]
-9.9 -12.7 80 -17 -17 1004.1 1000.9 -11.6 0.4 83
06 16.04 Ю 5 20 км в посл. час ливневой снег 9/6 300 м
[Cb cap Ci fib]
-6.0 -11.6 65 -13 -12 1004.1 1000.9
09 16.04 В 5 4000 м слаб. ливневой снег 9/9 420 м
[Cb cap]
-4.5 -9.9 66 -11 -11 1005.0 1001.8
12 16.04 В 4 4000 м слаб. ливневой снег 9/9 330 м
[Cb cap]
-5.9 -9.6 75 -12 -12 1006.8 1003.6
15 16.04 В 3 4000 м слаб. ливневой снег 10/10 270 м
[Cb cap]
-7.9 -10.2 84 -14 -14 1007.5 1004.3 -4.4 0.6
18 16.04 СВ 4 2000 м слаб. снег 10/0
[As op]
-9.7 -11.8 85 -17 -17 1007.9 1004.7
21 16.04 СВ 4 4000 м слаб. снег 10/0
[As op]
-11.6 -13.7 84 -19 -19 1007.7 1004.5
00 17.04 СВ 6 4000 м слаб. снег 10/0
[As op]
-14.5 -17.2 80 -24 -24 1007.8 1004.5
03 17.04 СВ 7-11
{11}
4000 м слаб. ливневой снег 10/5 300 м
[Cb cap Ac As]
-14.0 -17.3 76 -24 -24 1007.6 1004.3 -14.5 2 80
06 17.04 СВ 8-13
{13}
20 км позёмок {ливн. осадки, снег} 10/0
[Ac As]
-11.8 -15.8 72 -22 -21 1007.4 1004.2
09 17.04 СВ 7-12
{13}
20 км позёмок {ливн. осадки, снег} 9/0
[Ac trans]
-10.3 -16.1 62 -19 -19 1007.4 1004.2
12 17.04 С 8-11
{12}
20 км позёмок {ливн. осадки, снег} 9/0
[Ac trans]
-11.8 -17.5 63 -22 -22 1008.1 1004.9
15 17.04 С 7-10
{13}
20 км позёмок 9/0
[Ac trans]
-14.8 -19.8 66 -25 -25 1008.2 1004.9 -7.9 0.4
18 17.04 С 5
{10}
20 км {метель} 8/0
[Ci fib]
-18.0 -22.8 66 -28 -28 1007.2 1003.8
21 17.04 С 5 20 км 8/0
[Ci fib]
-19.3 -23.6 69 -29 -29 1005.8 1002.4
00 18.04 С 6 20 км 9/0
[Ci fib]
-20.1 -24.2 70 -31 -31 опасность
обморожения
1005.3 1001.9
03 18.04 СВ 5 20 км 6/0
[Ci fib]
-17.0 -22.8 61 -26 -24 1005.0 1001.6 -20.1 77
06 18.04 С 6-10
{11}
20 км 4/0
[Ci fib]
-11.0 -19.2 51 -20 -17 1004.6 1001.4
09 18.04 С 6-12
{13}
20 км ясно -9.7 -19.1 46 -18 -16 1006.4 1003.2
12 18.04 С 6-10
{14}
20 км ясно -9.8 -19.0 47 -18 -18 1008.2 1005.0
15 18.04 С 5
{10}
20 км 3/0
[Ci fib]
-13.9 -20.8 56 -22 -22 1010.3 1007.0 -9.2
18 18.04 СЗ 3 20 км ясно -18.2 -22.6 68 -25 -25 1011.6 1008.2
21 18.04 СЗ 1 20 км ясно -21.4 -24.2 78 -25 -25 1012.0 1008.6
00 19.04 З 2 20 км ясно -22.3 -25.2 77 -29 -28 1012.6 1009.2
03 19.04 ЮЗ 2 20 км ясно -16.8 -21.8 65 -22 -18 1012.6 1009.3 -22.6 76
06 19.04 ЮЗ 1 20 км 5/0
[Ac trans Ci fib]
-6.9 -18.8 38 -9 -1 1011.6 1008.3
09 19.04 Ю 2 20 км 10/0
[Ac trans]
-5.9 -21.2 29 -9 -7 1010.7 1007.5
12 19.04 ЮВ 2 20 км 10/0
[Ac trans]
-6.0 -23.1 24 -9 -9 1010.0 1006.8
15 19.04 В 2 20 км 10/0
[Ac trans]
-10.8 -19.6 48 -15 -15 1009.0 1005.8 -6.0
18 19.04 СВ 1 20 км 10/0
[Ac trans]
-13.0 -20.8 52 -15 -15 1008.1 1004.8
21 19.04 н/о
00 20.04 СВ 3 20 км 8/0
[Ac trans]
-13.8 -19.4 63 -20 -20 1007.2 1003.9
03 20.04 СВ 4 20 км 8/4 360 м
[Sc Ac trans]
-10.6 -17.7 56 -17 -16 1007.7 1004.5 -14.2 76
06 20.04 СВ 4 20 км 9/0
[Ci fib]
-7.0 -16.7 46 -13 -9 1008.0 1004.8
09 20.04 С 4 20 км 10/0
[Ci fib]
-7.1 -19.6 36 -13 -10 1008.7 1005.5
12 20.04 С 4 20 км 9/0
[Ci fib]
-7.6 -17.8 44 -14 -13 1009.5 1006.3
15 20.04 С 4 20 км 3/0
[Ci fib]
-13.3 -19.2 61 -21 -21 1010.9 1007.6 -6.3
18 20.04 С 3 20 км 3/0
[Ci fib]
-16.7 -21.1 69 -24 -24 1010.0 1007.2
21 20.04 СЗ 3 20 км 4/0
[Ci fib]
-20.0 -22.6 80 -28 -28 1010.4 1007.0
00 21.04 СЗ 2 20 км 3/0
[Ci fib]
-21.7 -24.6 77 -28 -27 1010.0 1007.2
03 21.04 З 3 20 км 10/0
[Ci fib]
-15.6 -21.7 59 -22 -19 1010.8 1007.5 -22.6 76
06 21.04 СЗ 3 20 км 8/0
[Ci fib]
-9.7 -19.3 45 -15 -10 1011.1 1007.8

 

Местоположение метеостанции Красноселькупск (Ямало-Ненецкий АО, Россия): широта 65.70 долгота 82.45 высота над уровнем моря 25 м.

В архиве по умолчанию представлена погода в Красноселькупске за последнюю неделю. Архивные данные за месяц целиком и за предыдущие месяцы, начиная с января 2011 года, Вы можете получить, выбрав интересующий диапазон дат из раскрывающегося списка и нажав кнопку "Ввод!".


*Определитесь, кто Вы:
робот инопланетянин человек

Внимание! Время в таблицах - всемирное. Для получения местного времени необходимо прибавить поправку, которая равна 5 ч.

Смотрите также архив погоды в соседних городах и на ближайших метеорологических станциях:

Погода в Советской Речке (Красноярский край, Россия) (138 км)
Погода в Уренгое (Ямало-Ненецкий АО, Россия) (187 км)
Погода в Тольке (Ямало-Ненецкий АО, Россия) (192 км)
Погода в Курейке (Красноярский край, Россия) (231 км)
Погода в Тарко-Сале (Ямало-Ненецкий АО, Россия) (232 км)
Погода в Туруханске (Красноярский край, Россия) (251 км)
Погода в Тазовском (Ямало-Ненецкий АО, Россия) (256 км)
Погода в Новом Уренгое (Ямало-Ненецкий АО, Россия) (261 км)
Погода в Игарке (Красноярский край, Россия) (268 км)
Погода в Верещагино (Красноярский край, Россия) (287 км)

Пояснения к столбцам:

Ветер - указаны скорость ветра в м/с - средняя за 10 мин, порывы в срок и между сроками (в фигурных скобках) и направление, откуда дует ветер: С - северный, СВ - северо-восточный, В - восточный, ЮВ - юго-восточный, Ю - южный, ЮЗ - юго-западный, З - западный, СЗ - северо-западный.
Видимость - горизонтальная дальность видимости в метрах или километрах. При видимости от 1 до 10 км при отсутствии осадков обычно наблюдается дымка, при ухудшении видимости до 1 км и менее - туман. В сухую погоду видимость может ухудшаться дымом, пылью или мглою.
Явления - указаны атмосферные явления, наблюдавшиеся в срок или в последний час перед сроком; фигурными скобками обозначены явления, наблюдавшиеся между сроками (за 1-3 часа до срока); квадратными скобками обозначены град или гололедные отложения с указанием их диаметра в мм.
Облачность - указаны через наклонную черту общая и нижняя облачность в баллах и высота нижней границы облаков в метрах; квадратными скобками обозначены формы облаков: Ci - перистые, Cs - перисто-слоистые, Cc - перисто-кучевые, Ac - высококучевые, As - высокослоистые, Sc - слоисто-кучевые, Ns - слоисто-дождевые, Cu - кучевые, Cb - кучево-дождевые. Подробнее классификацию облаков см. в Атласе облаков (PDF).
T - Температура воздуха - температура, измеренная на высоте 2 м над землей.
Td - Температура точки росы - температура, при понижении до которой содержащийся в воздухе водяной пар достигнет насыщения.
f - Относительная влажность воздуха - влажноcть воздуха, измеренная на высоте 2 м над землей.
Te - Эффективная температура - температура, которую ощущает одетый по сезону человек в тени. Характеристика душности погоды. При расчете учитывается влияние влажности воздуха и скорости ветра на теплоощущения человека.
Tes - Эффективная температура на солнце - температура, которую ощущает человек, с поправкой на солнечный нагрев. Характеристика знойности погоды. Зависит от высоты солнца над горизонтом, облачности и скорости ветра. Ночью, в пасмурную погоду, а также при ветре 12 м/с и более поправка равна нулю.
P - Атмосферное давление - приведенное к уровню моря атмосферное давление.
Po - Атмосферное давление - измеренное на уровне метеостанции атмосферное давление.
Tmin - Минимальная температура - минимум температуры воздуха на высоте 2 м над землей.
Tmax - Максимальная температура - максимум температуры воздуха на высоте 2 м над землей.
R - Количество осадков - Количество выпавших осадков за период времени, мм. При наведении курсора мыши на число - период времени, за который выпало указанное количество осадков.
R24 - Количество осадков - Количество выпавших осадков за 24 часа, мм.
S - Снежный покров - Высота снежного покрова, см. При наведении курсора мыши на число - состояние снежного покрова и степень покрытия местности в баллах.